Location: Copeville
(33.0796°N, 96.4155°W)
Time: 12:42:36
(UTC+00:00)

TIGRISAT - Visible Passes

Search period start: 28 March 2023 00:00
Search period end: 07 April 2023 00:00
Orbit: 601 x 682 km, 97.7° (Epoch: 28 March)

Date Brightness Start Highest point End Pass type
(mag) Time Alt. Az. Time Alt. Az. Time Alt. Az.
28 Mar ? 11:09:55 10° SSE 11:14:09 58° ENE 11:18:32 10° N visible
29 Mar ? 11:33:45 10° S 11:38:05 71° W 11:42:32 10° NNW visible
30 Mar ? 01:05:44 10° NNW 01:09:03 19° WNW 01:12:21 10° WSW visible
30 Mar ? 10:23:07 10° ESE 10:25:52 16° ENE 10:28:39 10° NNE visible
31 Mar ? 01:31:48 10° NW 01:32:43 11° WNW 01:33:39 10° WNW visible
31 Mar ? 10:45:47 10° SE 10:49:36 30° ENE 10:53:31 10° N visible
01 Apr ? 11:09:07 10° SSE 11:13:25 58° ENE 11:17:50 10° N visible
02 Apr ? 11:32:56 10° S 11:37:18 72° WSW 11:41:49 10° NNW visible
03 Apr ? 10:22:17 10° ESE 10:25:05 17° ENE 10:27:56 10° NNE visible
04 Apr ? 01:31:03 10° NW 01:31:57 10° WNW 01:32:51 10° WNW visible
04 Apr ? 10:44:56 10° SE 10:48:48 30° ENE 10:52:46 10° N visible
05 Apr ? 11:08:15 10° SSE 11:12:36 58° ENE 11:17:04 10° N visible
06 Apr ? 11:32:03 10° S 11:36:28 72° W 11:41:02 10° NNW visible
